Chicago, IL

1:03 PM CST on November 21, 2019 (GMT -0600)
Chicago-O'Hare International

Weather History for KORD - May, 2019

Change the Weather History Date:

Friday, May 10, 2019

  Actual Average Record
Temperature  
Mean Temperature 51 °F 57 °F  
Max Temperature 58 °F 68 °F 90 °F (2011)
Min Temperature 44 °F 47 °F 28 °F (1983)
Degree Days  
Heating Degree Days 14 9  
Month to date heating degree days 126 98  
Since 1 July heating degree days 6315 6165  
Cooling Degree Days 0 1  
Month to date cooling degree days 0 8  
Year to date cooling degree days 4 18  
Moisture  
Dew Point 37 °F    
Average Humidity 67    
Maximum Humidity 83    
Minimum Humidity 51    
Precipitation  
Precipitation 0.00 in 0.12 in 2.84 in (1951)
Month to date precipitation 3.00 1.16  
Year to date precipitation 15.88 10.56  
Snow  
Snow 0.00 in 0.00 in T in (1945)
Month to date snowfall 0.0 0.0  
Since 1 July snowfall 49.5 36.3  
Snow Depth 0.00 in    
Sea Level Pressure  
Sea Level Pressure 30.08 in    
Wind  
Wind Speed 9 mph (North)    
Max Wind Speed 16 mph    
Max Gust Speed 23 mph    
Visibility 10 miles    
Events      
T = Trace of Precipitation, MM = Missing Value Source: NWS Daily Summary

Daily Weather History Graph

Daily Weather History Graph

Search for Another Location

Airport or City:

Astronomy

May. 10, 2019 Rise Set
Actual Time 5:36 AM CDT 7:59 PM CDT
Civil Twilight 5:05 AM CDT 8:31 PM CDT
Nautical Twilight 4:26 AM CDT 9:10 PM CDT
Astronomical Twilight 3:43 AM CDT 9:53 PM CDT
Moon 10:35 AM CDT (5/10) 12:54 AM CDT (5/10)
Length of Visible Light 15h 25m
Length of Day
14h 23m
Waxing Crescent, 35% of the Moon is Illuminated
May 10
Waxing Crescent
May 11
First Quarter
May 18
Full
May 26
Last Quarter
Jun 3
New

Hourly Weather History & Observations

Time (CDT) Temp. Windchill Dew Point Humidity Pressure Visibility Wind Dir Wind Speed Gust Speed Precip Events Conditions
12:43 AM 46.0 °F 41.4 °F 39.0 °F 76% 29.94 in 10.0 mi NW 9.2 mph - N/A   Overcast
12:51 AM 46.0 °F 42.5 °F 39.0 °F 76% 29.94 in 10.0 mi NW 6.9 mph - N/A   Overcast
1:15 AM 46.0 °F 41.9 °F 39.0 °F 76% 29.95 in 10.0 mi WNW 8.1 mph - N/A   Overcast
1:51 AM 46.0 °F 41.0 °F 39.0 °F 76% 29.96 in 10.0 mi NW 10.4 mph - N/A   Overcast
2:51 AM 45.0 °F 40.6 °F 39.0 °F 80% 29.98 in 10.0 mi WNW 8.1 mph - N/A   Overcast
3:51 AM 45.0 °F 39.3 °F 39.0 °F 80% 29.99 in 10.0 mi NNW 11.5 mph - N/A   Overcast
4:04 AM 44.1 °F 38.1 °F 39.9 °F 85% 29.99 in 10.0 mi NW 11.5 mph - N/A   Overcast
4:41 AM 44.1 °F 39.0 °F 39.0 °F 82% 29.99 in 10.0 mi NW 9.2 mph - N/A   Overcast
4:51 AM 44.1 °F 38.6 °F 39.0 °F 82% 29.99 in 10.0 mi NW 10.4 mph - N/A   Overcast
5:23 AM 44.1 °F 40.1 °F 37.9 °F 79% 30.00 in 10.0 mi NW 6.9 mph - N/A   Overcast
5:51 AM 45.0 °F 39.7 °F 36.0 °F 71% 30.03 in 10.0 mi NW 10.4 mph - N/A   Overcast
6:51 AM 44.1 °F 39.5 °F 35.1 °F 71% 30.08 in 10.0 mi WNW 8.1 mph - N/A   Overcast
7:02 AM 44.1 °F 39.0 °F 35.1 °F 71% 30.08 in 10.0 mi NW 9.2 mph - N/A   Overcast
7:51 AM 45.0 °F 39.3 °F 35.1 °F 68% 30.09 in 10.0 mi NW 11.5 mph - N/A   Mostly Cloudy
8:51 AM 48.0 °F - 36.0 °F 63% 30.10 in 10.0 mi NNW 9.2 mph - N/A   Scattered Clouds
9:51 AM 48.9 °F - 34.0 °F 56% 30.12 in 10.0 mi WNW 12.7 mph - N/A   Scattered Clouds
10:51 AM 53.1 °F - 37.9 °F 57% 30.13 in 10.0 mi NNW 6.9 mph - N/A   Scattered Clouds
11:51 AM 54.0 °F - 37.0 °F 53% 30.12 in 10.0 mi North 15.0 mph 21.9 mph N/A   Scattered Clouds
12:51 PM 55.0 °F - 37.0 °F 51% 30.13 in 10.0 mi North 9.2 mph 18.4 mph N/A   Mostly Cloudy
1:51 PM 55.9 °F - 37.0 °F 49% 30.13 in 10.0 mi NE 6.9 mph - N/A   Mostly Cloudy
2:51 PM 55.0 °F - 37.9 °F 53% 30.14 in 10.0 mi East 10.4 mph - N/A   Mostly Cloudy
3:51 PM 54.0 °F - 37.9 °F 55% 30.14 in 10.0 mi East 8.1 mph - N/A   Mostly Cloudy
4:51 PM 55.0 °F - 37.9 °F 53% 30.14 in 10.0 mi East 6.9 mph - N/A   Mostly Cloudy
5:51 PM 55.0 °F - 37.0 °F 51% 30.15 in 10.0 mi East 8.1 mph - N/A   Scattered Clouds
6:51 PM 53.1 °F - 37.0 °F 55% 30.15 in 10.0 mi East 10.4 mph - N/A   Partly Cloudy
7:51 PM 48.0 °F - 35.1 °F 61% 30.17 in 10.0 mi East 9.2 mph - N/A   Partly Cloudy
8:51 PM 46.0 °F 42.5 °F 35.1 °F 66% 30.18 in 10.0 mi East 6.9 mph - N/A   Partly Cloudy
9:51 PM 45.0 °F 41.8 °F 35.1 °F 68% 30.18 in 10.0 mi East 5.8 mph - N/A   Clear
10:51 PM 45.0 °F 42.6 °F 35.1 °F 68% 30.18 in 10.0 mi ESE 4.6 mph - N/A   Clear
11:51 PM 44.1 °F 42.5 °F 35.1 °F 71% 30.18 in 10.0 mi ESE 3.5 mph - N/A   Partly Cloudy